SAZ63 LDPL-LSZH

Flight info

Callsign SAZ63
Flight time 1h 0m
Altitude 40000
Route PEVAL DCT BABAG DCT RESIA Z50 KELIP
Aircraft CL60/M-SBDE1E2E3FGHIJ1J4J5J7M3RWXYZ/LB1V1D1

Departure

Time 2026-05-08 10:08
Airport Pula Airport (LDPL)

Arrival

Time 2026-05-08 11:09
Airport Zürich Airport (LSZH)
Time Latitude Longitude Altitude Speed Heading
2026-05-08 09:45 44.89810 13.92509 225 ft 0 kts 283°
2026-05-08 10:03 44.89813 13.92499 225 ft 3 kts 291°
2026-05-08 10:03 44.89798 13.92453 223 ft 9 kts 184°
2026-05-08 10:04 44.89707 13.92454 220 ft 16 kts 178°
2026-05-08 10:04 44.89602 13.92460 217 ft 11 kts 179°
2026-05-08 10:04 44.89576 13.92349 214 ft 16 kts 268°
2026-05-08 10:04 44.89571 13.92163 209 ft 22 kts 268°
2026-05-08 10:05 44.89565 13.91916 202 ft 28 kts 268°
2026-05-08 10:05 44.89561 13.91620 197 ft 32 kts 267°
2026-05-08 10:05 44.89556 13.91409 192 ft 18 kts 269°
2026-05-08 10:05 44.89552 13.91199 188 ft 24 kts 269°
2026-05-08 10:06 44.89547 13.90945 187 ft 27 kts 268°
2026-05-08 10:06 44.89540 13.90663 185 ft 30 kts 266°
2026-05-08 10:06 44.89429 13.90457 178 ft 21 kts 221°
2026-05-08 10:06 44.89416 13.90438 177 ft 0 kts 229°
2026-05-08 10:07 44.89408 13.90425 177 ft 4 kts 229°
2026-05-08 10:07 44.89375 13.90380 177 ft 8 kts 209°
2026-05-08 10:07 44.89315 13.90392 177 ft 10 kts 107°
2026-05-08 10:07 44.89315 13.90418 177 ft 0 kts 88°
2026-05-08 10:08 44.89326 13.90950 182 ft 110 kts 88°
2026-05-08 10:08 44.89378 13.92395 502 ft 167 kts 84°
2026-05-08 10:08 44.89561 13.94019 1359 ft 180 kts 80°
2026-05-08 10:08 44.89725 13.95828 2347 ft 195 kts 85°
2026-05-08 10:09 44.89757 13.97732 3516 ft 201 kts 90°
2026-05-08 10:09 44.89762 13.99647 4687 ft 204 kts 90°
2026-05-08 10:09 44.89784 14.01714 5546 ft 229 kts 86°
2026-05-08 10:09 44.90316 14.03985 6079 ft 265 kts 54°
2026-05-08 10:10 44.91786 14.05601 6583 ft 278 kts 24°
2026-05-08 10:10 44.93616 14.06570 6996 ft 282 kts 21°
2026-05-08 10:10 44.95461 14.07532 6988 ft 278 kts 22°
2026-05-08 10:10 44.97253 14.08496 6994 ft 278 kts 22°
2026-05-08 10:11 44.99053 14.09496 6993 ft 277 kts 23°
2026-05-08 10:11 45.00852 14.10517 6991 ft 277 kts 21°
2026-05-08 10:11 45.02736 14.11202 7001 ft 279 kts
2026-05-08 10:11 45.04686 14.11283 7037 ft 294 kts 358°
2026-05-08 10:12 45.06811 14.11155 8056 ft 313 kts 358°
2026-05-08 10:12 45.08966 14.11033 9454 ft 317 kts 358°
2026-05-08 10:12 45.11160 14.10910 10796 ft 323 kts 358°
2026-05-08 10:12 45.13394 14.10529 12144 ft 328 kts 345°
2026-05-08 10:13 45.15443 14.09238 13397 ft 332 kts 327°
2026-05-08 10:13 45.17135 14.06996 14568 ft 338 kts 306°
2026-05-08 10:13 45.18152 14.04048 15665 ft 343 kts 285°
2026-05-08 10:13 45.18716 14.00745 16733 ft 349 kts 282°
2026-05-08 10:14 45.19263 13.97420 17804 ft 352 kts 282°
2026-05-08 10:14 45.19823 13.94030 18839 ft 355 kts 282°
2026-05-08 10:14 45.20382 13.90649 19823 ft 358 kts 282°
2026-05-08 10:14 45.20950 13.87211 20791 ft 360 kts 281°
2026-05-08 10:15 45.21515 13.83783 21711 ft 362 kts 281°
2026-05-08 10:15 45.22088 13.80304 22556 ft 365 kts 281°
2026-05-08 10:15 45.22666 13.76788 23379 ft 368 kts 281°
2026-05-08 10:15 45.23242 13.73283 24182 ft 372 kts 281°
2026-05-08 10:16 45.23833 13.69681 24925 ft 377 kts 280°
2026-05-08 10:16 45.24430 13.66028 25604 ft 382 kts 280°
2026-05-08 10:16 45.25026 13.62388 26309 ft 386 kts 280°
2026-05-08 10:16 45.25635 13.58649 26988 ft 389 kts 280°
2026-05-08 10:17 45.26247 13.54894 27635 ft 393 kts 280°
2026-05-08 10:17 45.26857 13.51141 28237 ft 397 kts 279°
2026-05-08 10:17 45.27483 13.47290 28811 ft 400 kts 279°
2026-05-08 10:17 45.28101 13.43469 29352 ft 404 kts 279°
2026-05-08 10:18 45.28734 13.39551 29904 ft 407 kts 279°
2026-05-08 10:18 45.29361 13.35661 30434 ft 409 kts 279°
2026-05-08 10:18 45.29996 13.31711 30928 ft 413 kts 278°
2026-05-08 10:18 45.30685 13.27675 31404 ft 418 kts 283°
2026-05-08 10:19 45.31879 13.23884 31858 ft 427 kts 296°
2026-05-08 10:19 45.33638 13.20421 32235 ft 437 kts 306°
2026-05-08 10:19 45.35699 13.17146 32630 ft 441 kts 307°
2026-05-08 10:20 45.39516 13.10320 33338 ft 439 kts 297°
2026-05-08 10:20 45.41004 13.06533 33662 ft 439 kts 293°
2026-05-08 10:20 45.42450 13.02641 34065 ft 439 kts 292°
2026-05-08 10:20 45.43881 12.98801 34568 ft 437 kts 292°
2026-05-08 10:21 45.45306 12.94967 34993 ft 435 kts 292°
2026-05-08 10:21 45.46717 12.91169 35347 ft 432 kts 292°
2026-05-08 10:21 45.48123 12.87382 35640 ft 432 kts 293°
2026-05-08 10:22 45.50962 12.79706 35689 ft 438 kts 293°
2026-05-08 10:22 45.53795 12.72040 35699 ft 434 kts 293°
2026-05-08 10:23 45.56604 12.64410 36075 ft 435 kts 293°
2026-05-08 10:23 45.58004 12.60610 36551 ft 425 kts 293°
2026-05-08 10:23 45.59343 12.56969 37161 ft 416 kts 293°
2026-05-08 10:23 45.60677 12.53335 37648 ft 410 kts 293°
2026-05-08 10:24 45.62013 12.49684 38004 ft 408 kts 293°
2026-05-08 10:24 45.63320 12.46108 38256 ft 408 kts 294°
2026-05-08 10:24 45.64637 12.42500 38373 ft 412 kts 294°
2026-05-08 10:25 45.67315 12.35142 38383 ft 423 kts 294°
2026-05-08 10:25 45.70043 12.27632 38586 ft 428 kts 293°
2026-05-08 10:25 45.71416 12.23848 38739 ft 429 kts 294°
2026-05-08 10:26 45.72776 12.20093 38922 ft 429 kts 294°
2026-05-08 10:26 45.74141 12.16320 39079 ft 429 kts 294°
2026-05-08 10:26 45.75520 12.12505 39251 ft 429 kts 294°
2026-05-08 10:26 45.76887 12.08713 39426 ft 429 kts 294°
2026-05-08 10:27 45.78243 12.04949 39572 ft 429 kts 294°
2026-05-08 10:27 45.79601 12.01175 39691 ft 429 kts 294°
2026-05-08 10:27 45.80970 11.97364 39823 ft 429 kts 294°
2026-05-08 10:27 45.82330 11.93573 39961 ft 429 kts 294°
2026-05-08 10:28 45.83693 11.89769 40061 ft 430 kts 294°
2026-05-08 10:28 45.86442 11.82079 40056 ft 433 kts 294°
2026-05-08 10:29 45.89176 11.74410 40055 ft 432 kts 294°
2026-05-08 10:29 45.91882 11.66799 40061 ft 429 kts 294°
2026-05-08 10:30 45.94601 11.59129 40052 ft 429 kts 294°
2026-05-08 10:30 45.97287 11.51528 40044 ft 429 kts 294°
2026-05-08 10:31 45.99977 11.43895 40047 ft 429 kts 294°
2026-05-08 10:31 46.02675 11.36216 40056 ft 429 kts 294°
2026-05-08 10:32 46.05354 11.28569 40068 ft 432 kts 294°
2026-05-08 10:32 46.08074 11.20781 40068 ft 438 kts 294°
2026-05-08 10:33 46.10818 11.12901 40082 ft 441 kts 294°
2026-05-08 10:33 46.13572 11.04972 40084 ft 442 kts 294°
2026-05-08 10:34 46.16300 10.97094 40088 ft 441 kts 294°
2026-05-08 10:34 46.19022 10.89209 40092 ft 441 kts 294°
2026-05-08 10:35 46.21744 10.81303 40067 ft 441 kts 294°
2026-05-08 10:35 46.24460 10.73387 40066 ft 440 kts 294°
2026-05-08 10:36 46.27166 10.65477 40071 ft 440 kts 294°
2026-05-08 10:36 46.29877 10.57531 40073 ft 441 kts 294°
2026-05-08 10:37 46.32576 10.49592 40072 ft 441 kts 294°
2026-05-08 10:37 46.35276 10.41630 40074 ft 441 kts 294°
2026-05-08 10:38 46.37982 10.33623 40089 ft 441 kts 293°
2026-05-08 10:38 46.40668 10.25654 40098 ft 441 kts 293°
2026-05-08 10:39 46.43367 10.17619 40084 ft 442 kts 293°
2026-05-08 10:39 46.46032 10.09662 40112 ft 441 kts 293°
2026-05-08 10:40 46.48793 10.01697 40130 ft 442 kts 296°
2026-05-08 10:40 46.51767 9.93913 40139 ft 442 kts 296°
2026-05-08 10:41 46.54723 9.86145 40141 ft 437 kts 296°
2026-05-08 10:41 46.57663 9.78391 39722 ft 441 kts 296°
2026-05-08 10:41 46.59134 9.74504 39181 ft 439 kts 296°
2026-05-08 10:42 46.60596 9.70634 38592 ft 437 kts 296°
2026-05-08 10:42 46.62050 9.66779 37983 ft 437 kts 295°
2026-05-08 10:42 46.63495 9.62940 37393 ft 435 kts 295°
2026-05-08 10:42 46.64938 9.59102 36814 ft 433 kts 295°
2026-05-08 10:43 46.66386 9.55246 36251 ft 431 kts 295°
2026-05-08 10:43 46.67820 9.51417 35748 ft 434 kts 294°
2026-05-08 10:43 46.69271 9.47531 34991 ft 446 kts 294°
2026-05-08 10:43 46.70738 9.43608 34447 ft 436 kts 293°
2026-05-08 10:44 46.72180 9.39752 33902 ft 431 kts 293°
2026-05-08 10:44 46.73602 9.35932 33357 ft 429 kts 293°
2026-05-08 10:44 46.75032 9.32089 32784 ft 428 kts 292°
2026-05-08 10:44 46.76437 9.28308 32234 ft 424 kts 292°
2026-05-08 10:45 46.77823 9.24571 31669 ft 420 kts 292°
2026-05-08 10:45 46.79202 9.20850 31118 ft 415 kts 292°
2026-05-08 10:45 46.80566 9.17163 30568 ft 411 kts 292°
2026-05-08 10:45 46.81913 9.13517 30023 ft 407 kts 292°
2026-05-08 10:46 46.83249 9.09895 29484 ft 404 kts 293°
2026-05-08 10:46 46.84573 9.06303 28952 ft 401 kts 293°
2026-05-08 10:46 46.85880 9.02748 28419 ft 398 kts 293°
2026-05-08 10:46 46.87188 8.99185 27887 ft 395 kts 293°
2026-05-08 10:47 46.88479 8.95667 27358 ft 392 kts 294°
2026-05-08 10:47 46.89756 8.92181 26838 ft 389 kts 294°
2026-05-08 10:47 46.91035 8.88683 26323 ft 387 kts 294°
2026-05-08 10:47 46.92295 8.85234 25796 ft 383 kts 294°
2026-05-08 10:48 46.93590 8.81870 25318 ft 383 kts 300°
2026-05-08 10:48 46.95330 8.78927 24766 ft 386 kts 315°
2026-05-08 10:48 46.97557 8.76733 24220 ft 389 kts 330°
2026-05-08 10:48 47.00122 8.75492 23629 ft 392 kts 347°
2026-05-08 10:49 47.02818 8.75003 23077 ft 388 kts 351°
2026-05-08 10:49 47.05490 8.74586 22576 ft 385 kts 351°
2026-05-08 10:49 47.08127 8.74053 22080 ft 381 kts 348°
2026-05-08 10:49 47.10731 8.73368 21558 ft 379 kts 347°
2026-05-08 10:50 47.13337 8.72678 21042 ft 376 kts 347°
2026-05-08 10:50 47.15905 8.72000 20544 ft 373 kts 348°
2026-05-08 10:50 47.18448 8.71326 20056 ft 371 kts 348°
2026-05-08 10:50 47.20970 8.70659 19562 ft 368 kts 348°
2026-05-08 10:51 47.23485 8.69994 19055 ft 366 kts 348°
2026-05-08 10:51 47.25977 8.69327 18572 ft 362 kts 347°
2026-05-08 10:51 47.28345 8.68173 18096 ft 357 kts 334°
2026-05-08 10:51 47.30577 8.66632 17622 ft 355 kts 333°
2026-05-08 10:52 47.32810 8.65093 17152 ft 353 kts 334°
2026-05-08 10:52 47.35007 8.63582 16694 ft 351 kts 334°
2026-05-08 10:52 47.37219 8.62019 16225 ft 348 kts 331°
2026-05-08 10:52 47.39294 8.60246 15766 ft 345 kts 328°
2026-05-08 10:53 47.41350 8.58418 15307 ft 343 kts 328°
2026-05-08 10:53 47.43406 8.56584 14846 ft 341 kts 326°
2026-05-08 10:53 47.45176 8.54342 14390 ft 336 kts 308°
2026-05-08 10:53 47.46344 8.51401 13928 ft 329 kts 289°
2026-05-08 10:54 47.47032 8.48208 13453 ft 327 kts 285°
2026-05-08 10:54 47.47677 8.45037 13042 ft 321 kts 286°
2026-05-08 10:54 47.48320 8.41891 12612 ft 315 kts 285°
2026-05-08 10:54 47.48943 8.38844 12208 ft 310 kts 285°
2026-05-08 10:55 47.49563 8.35804 11799 ft 305 kts 285°
2026-05-08 10:55 47.50169 8.32834 11398 ft 300 kts 285°
2026-05-08 10:55 47.50762 8.29921 11002 ft 294 kts 285°
2026-05-08 10:55 47.51110 8.27101 11246 ft 262 kts 261°
2026-05-08 10:56 47.50404 8.24889 12623 ft 244 kts 224°
2026-05-08 10:56 47.48903 8.23677 13581 ft 262 kts 192°
2026-05-08 10:56 47.46955 8.23739 13451 ft 303 kts 165°
2026-05-08 10:56 47.44994 8.24789 13096 ft 299 kts 164°
2026-05-08 10:57 47.42956 8.24970 12690 ft 292 kts 193°
2026-05-08 10:57 47.41209 8.23572 12293 ft 285 kts 225°
2026-05-08 10:57 47.40438 8.18243 11589 ft 280 kts 291°
2026-05-08 10:58 47.41606 8.16024 11223 ft 281 kts 323°
2026-05-08 10:58 47.43431 8.15107 10901 ft 278 kts 357°
2026-05-08 10:58 47.45363 8.15204 10726 ft 281 kts
2026-05-08 10:58 47.47337 8.15356 10506 ft 285 kts
2026-05-08 10:59 47.49331 8.15503 10238 ft 285 kts
2026-05-08 10:59 47.51303 8.15641 9945 ft 284 kts
2026-05-08 10:59 47.53269 8.15773 9634 ft 283 kts
2026-05-08 10:59 47.55254 8.15896 9315 ft 281 kts
2026-05-08 11:00 47.57188 8.15783 8939 ft 281 kts 353°
2026-05-08 11:00 47.59096 8.15254 8573 ft 278 kts 344°
2026-05-08 11:00 47.60950 8.14405 8208 ft 274 kts 346°
2026-05-08 11:00 47.62796 8.14462 7951 ft 267 kts 20°
2026-05-08 11:01 47.64288 8.16012 7692 ft 268 kts 49°
2026-05-08 11:01 47.65476 8.18183 7242 ft 271 kts 52°
2026-05-08 11:01 47.66597 8.20410 6891 ft 266 kts 60°
2026-05-08 11:01 47.67227 8.22934 6461 ft 261 kts 81°
2026-05-08 11:02 47.67204 8.25564 6096 ft 250 kts 101°
2026-05-08 11:02 47.65536 8.29828 5308 ft 230 kts 135°
2026-05-08 11:02 47.64380 8.31419 5025 ft 226 kts 135°
2026-05-08 11:03 47.63258 8.32972 4723 ft 211 kts 135°
2026-05-08 11:03 47.62240 8.34373 4467 ft 193 kts 135°
2026-05-08 11:03 47.61295 8.35664 4222 ft 176 kts 135°
2026-05-08 11:03 47.60441 8.36844 4064 ft 150 kts 135°
2026-05-08 11:04 47.59713 8.37852 3995 ft 140 kts 134°
2026-05-08 11:04 47.59009 8.38826 3984 ft 138 kts 134°
2026-05-08 11:04 47.58311 8.39790 3969 ft 137 kts 134°
2026-05-08 11:04 47.57603 8.40762 3819 ft 138 kts 134°
2026-05-08 11:05 47.56900 8.41724 3664 ft 137 kts 134°
2026-05-08 11:05 47.56202 8.42681 3488 ft 137 kts 134°
2026-05-08 11:05 47.55501 8.43641 3319 ft 137 kts 134°
2026-05-08 11:05 47.54801 8.44600 3138 ft 137 kts 134°
2026-05-08 11:06 47.54107 8.45550 2962 ft 137 kts 134°
2026-05-08 11:06 47.53411 8.46502 2782 ft 135 kts 134°
2026-05-08 11:06 47.52717 8.47453 2610 ft 135 kts 134°
2026-05-08 11:06 47.52029 8.48394 2418 ft 134 kts 134°
2026-05-08 11:07 47.51340 8.49335 2259 ft 135 kts 134°
2026-05-08 11:07 47.50658 8.50267 2070 ft 134 kts 135°
2026-05-08 11:07 47.49977 8.51198 1907 ft 135 kts 135°
2026-05-08 11:07 47.49294 8.52121 1771 ft 127 kts 135°
2026-05-08 11:08 47.48629 8.53029 1599 ft 137 kts 135°
2026-05-08 11:08 47.47957 8.53946 1400 ft 126 kts 135°
2026-05-08 11:08 47.47382 8.54733 1383 ft 98 kts 139°
2026-05-08 11:08 47.46953 8.55315 1384 ft 70 kts 135°
2026-05-08 11:09 47.46681 8.55685 1387 ft 43 kts 136°
2026-05-08 11:09 47.46508 8.55893 1391 ft 19 kts 153°
2026-05-08 11:09 47.46372 8.55956 1392 ft 21 kts 165°
2026-05-08 11:09 47.46218 8.56008 1396 ft 22 kts 156°
2026-05-08 11:10 47.46091 8.56153 1398 ft 23 kts 137°
2026-05-08 11:10 47.45968 8.56319 1403 ft 23 kts 137°
2026-05-08 11:10 47.45849 8.56483 1406 ft 14 kts 136°
2026-05-08 11:10 47.45796 8.56612 1408 ft 16 kts 94°
2026-05-08 11:11 47.45783 8.56782 1410 ft 17 kts 96°
2026-05-08 11:11 47.45770 8.56962 1413 ft 17 kts 98°
2026-05-08 11:11 47.45742 8.57137 1417 ft 17 kts 95°
2026-05-08 11:11 47.45736 8.57268 1420 ft 7 kts 74°
2026-05-08 11:12 47.45781 8.57298 1421 ft 8 kts 330°
2026-05-08 11:12 47.45790 8.57289 1421 ft 1 kts 323°
2026-05-08 11:12 47.45792 8.57288 1421 ft 0 kts 323°